This is the latest recevied weather packets stored in our database for station/object OK1OBR-13. If no packets are shown the sender has not sent any weather packets the latest 1 day(s).
| Time | Temp. | Humidity | Pressure | Rain* | Wind** | Luminosity | Snow |
|---|---|---|---|---|---|---|---|
| 1778048701 | 13.33° C | 78% | 929.7 hPa | 0.25 mm | - | - | - |
| 1778048642 | 13.33° C | 78% | 929.7 hPa | 0.25 mm | - | - | - |
| 1778048581 | 13.33° C | 78% | 929.8 hPa | 0.25 mm | - | - | - |
| 1778048461 | 13.33° C | 78% | 929.8 hPa | 0.25 mm | - | - | - |
| 1778048222 | 13.33° C | 76% | 929.7 hPa | 0.25 mm | - | - | - |
| 1778048162 | 13.33° C | 77% | 929.9 hPa | 0.25 mm | - | - | - |
| 1778048101 | 13.33° C | 78% | 929.6 hPa | 0.25 mm | - | - | - |
| 1778047921 | 13.33° C | 76% | 929.7 hPa | 0.25 mm | - | - | - |
| 1778047681 | 13.33° C | 80% | 929.9 hPa | 0.25 mm | - | - | - |
| 1778047562 | 13.33° C | 77% | 929.6 hPa | 0.25 mm | - | - | - |
| 1778047502 | 12.78° C | 80% | 929.8 hPa | 0.25 mm | - | - | - |
| 1778047441 | 12.78° C | 81% | 929.6 hPa | 0.25 mm | - | - | - |
| 1778047321 | 12.78° C | 82% | 929.9 hPa | 0.25 mm | - | - | - |
| 1778047262 | 12.78° C | 82% | 929.9 hPa | 0.25 mm | - | - | - |
| 1778047201 | 12.78° C | 83% | 929.9 hPa | 0.25 mm | - | - | - |
| 1778046961 | 12.78° C | 82% | 930 hPa | 0.25 mm | - | - | - |
| 1778046901 | 12.78° C | 82% | 929.9 hPa | 0.25 mm | - | - | - |
| 1778046842 | 12.78° C | 82% | 929.9 hPa | 0.25 mm | - | - | - |
| 1778046781 | 12.78° C | 82% | 929.8 hPa | 0.25 mm | - | - | - |
| 1778046725 | 12.78° C | 82% | 929.7 hPa | 0.25 mm | - | - | - |
| 1778046661 | 12.78° C | 81% | 930 hPa | 0.25 mm | - | - | - |
| 1778046541 | 12.78° C | 82% | 929.9 hPa | 0.25 mm | - | - | - |
| 1778046480 | 12.78° C | 83% | 929.7 hPa | 0.25 mm | - | - | - |
| 1778046422 | 12.78° C | 83% | 929.7 hPa | 0.25 mm | - | - | - |
| 1778046301 | 12.78° C | 82% | 929.8 hPa | 0.25 mm | - | - | - |
* Rain since midnight (hover to see other rain measurements)
** Current wind speed in m/s (hover to see current wind gust speed)